[[{"header":{"parameterUnit":"m.s-1","parameterCategory":1,"la1":30.2991,"la2":30.254,"lo1":-89.0895,"lo2":-89.0444,"dy":0.0017,"dx":0.0017,"nx":28,"ny":28,"refTime":"2024-09-29T21:00:00:Z","depth":0,"parameterNumber":2,"parameterNumberName":"U-component_of_WINDS"},"data":[0,0,0,0,0,0,0,0,0,0,0,0,0,0,0,0,0,0,0,0,0,0,0,0,0,0,0,0,0,0,0,0,0,0,0,0,0,0,0,0,0,0,0,0,0,0,0,0,0,0,0,0,0,0,0,0,0,0,2.6261,2.6261,0,2.634,2.6341,2.6341,2.6337,2.6336,2.6335,2.6334,2.6419,2.6423,2.6426,0,0,0,0,0,0,0,0,0,0,0,0,0,2.6111,2.6113,2.626,2.6261,2.6262,2.634,2.6341,2.6342,2.6337,2.6336,2.6335,2.6333,2.6418,2.6422,2.6426,0,0,0,0,0,0,0,0,0,0,0,0,0,2.6181,2.6114,2.626,2.6269,2.6271,2.6339,2.6341,2.6342,2.6338,2.6336,2.6334,2.6333,2.6417,2.6422,2.6427,2.6492,0,0,2.6442,2.6444,0,0,0,0,0,0,0,0,2.6177,2.6187,2.6267,2.6269,2.6271,2.6327,2.6319,2.6393,2.6338,2.6313,2.6334,2.6332,2.639,2.6397,2.6416,2.6496,2.65,2.6442,2.6446,2.6448,2.6449,0,0,0,0,0,0,0,2.6172,2.6184,2.6292,2.6268,2.6271,2.6271,2.6279,2.6333,2.636,2.6315,2.6315,2.6324,2.6391,2.6411,2.6418,2.6501,2.6442,2.6447,2.645,2.6452,2.6641,2.6643,0,0,0,0,0,0,2.6165,2.6179,2.6289,2.6294,2.6219,2.6275,2.6285,2.6311,2.636,2.6365,2.6325,2.6323,2.6403,2.6412,2.6421,2.6501,2.6448,2.6452,2.6455,2.6639,2.6641,2.6643,0,0,0,0,0,0,2.6162,2.6175,2.6286,2.6237,2.6251,2.628,2.6309,2.6313,2.6333,2.6367,2.6373,2.634,2.6402,2.6414,2.6475,2.6504,2.6455,2.6459,2.6636,2.664,2.6642,2.6663,0,0,0,0,0,0,2.6157,2.6174,2.6197,2.6237,2.6254,2.6337,2.6311,2.6316,2.6341,2.634,2.6383,2.6389,2.6402,2.6467,2.648,2.651,2.6463,2.6634,2.6638,2.6641,2.6659,2.6666,2.6672,0,0,0,0,0,2.6152,2.6201,2.6199,2.6212,2.6284,2.6338,2.6348,2.6361,2.6344,2.6369,2.6391,2.6388,2.6499,2.6473,2.6487,2.652,2.6632,2.6637,2.6641,2.6657,2.6665,2.6671,0,0,0,0,0,0,2.6164,2.6206,2.6204,2.6267,2.6299,2.6338,2.6369,2.6369,2.6407,2.6404,2.642,2.643,2.6491,2.6512,2.6482,2.6587,2.6564,2.6571,2.6571,2.6579,2.6585,2.6578,2.6467,0,0,0,0,0,2.6174,2.6214,2.6248,2.6301,2.6317,2.634,2.6365,2.6372,2.6406,2.642,2.6447,2.6482,2.6525,2.6553,2.6595,2.6663,2.6673,2.6693,2.6699,2.6703,2.671,2.6748,2.6758,2.6658,2.6658,2.6658,0,0,2.6195,2.6223,2.6247,2.6304,2.6329,2.6372,2.6352,2.6397,2.6429,2.6428,2.6486,2.6507,2.6548,2.6612,2.6642,2.6632,2.6739,2.6709,2.6713,2.6716,2.6754,2.6763,2.6772,2.6661,2.6661,2.666,0,0,2.6255,2.6279,2.6325,2.6352,2.6391,2.6407,2.6418,2.6457,2.6471,2.6529,2.653,2.6569,2.6643,2.6672,2.6696,2.6768,2.6767,2.6782,2.6813,2.6851,2.6859,2.6866,2.6892,2.6901,2.6788,2.6788,2.6788,0,2.6276,2.6338,2.635,2.6395,2.6421,2.6421,2.6469,2.6495,2.6546,2.6565,2.6552,2.6645,2.6672,2.6744,2.6762,2.6781,2.6796,2.6776,2.6856,2.6863,2.687,2.6895,2.6905,2.679,2.6789,2.6789,2.6789,0,2.6362,2.6406,2.6439,2.6487,2.6517,2.6563,2.6584,2.6613,2.6618,2.6636,2.6697,2.673,2.6778,2.6796,2.6802,2.6869,2.6862,2.6852,2.6829,2.6881,2.6905,2.6915,2.6792,2.6791,2.6791,2.679,0,0,2.643,2.6486,2.6498,2.652,2.6564,2.6598,2.6646,2.6693,2.6717,2.6754,2.6795,2.6858,2.685,2.6877,2.6887,2.692,2.6976,2.6907,2.6908,2.6919,2.7053,2.7059,2.707,2.6976,2.6977,2.6979,2.705,0,2.6494,2.6577,2.659,2.6663,2.6704,2.6706,2.6748,2.678,2.6799,2.6837,2.6858,2.6903,2.6889,2.6906,2.6938,2.6962,2.7003,2.6957,2.7015,2.7017,2.7004,2.7083,2.7089,2.7154,2.7059,2.7061,2.7062,0,2.6579,2.6617,2.6694,2.6733,2.6751,2.6788,2.6832,2.6869,2.6907,2.6918,2.6949,2.6955,2.7007,2.6982,2.7054,2.7022,2.7047,2.7063,2.7065,2.7071,2.7042,2.709,2.7176,2.7185,2.7077,2.7076,2.7075,0,2.6621,2.6691,2.6746,2.6766,2.6813,2.6839,2.6861,2.6897,2.6924,2.6964,2.6982,2.7028,2.7052,2.7088,2.7107,2.7087,2.7178,2.7154,2.719,2.7189,2.7208,2.7206,2.7298,2.7225,2.7224,2.7224,2.7224,0,2.6691,2.6738,2.6766,2.68,2.6853,2.6869,2.6922,2.6943,2.6976,2.7015,2.7021,2.7058,2.708,2.7121,2.7137,2.7194,2.7206,2.7217,2.722,2.7216,2.7215,2.7232,2.7228,2.7227,2.7226,2.7226,2.7225,0,2.6746,2.6766,2.6827,2.6867,2.6879,2.6916,2.6952,2.6986,2.7005,2.7054,2.7067,2.7097,2.7146,2.7168,2.7229,2.7239,2.7305,2.7305,2.7291,2.7292,2.7326,2.7322,2.7432,2.7447,2.7364,2.7365,2.7365,0,2.6789,2.6825,2.6869,2.6895,2.6917,2.6959,2.6987,2.7005,2.7035,2.7081,2.711,2.7159,2.7198,2.7277,2.7305,2.7351,2.7353,2.7388,2.736,2.7355,2.7353,2.7351,2.7355,2.7393,2.7394,2.7394,2.7395,0,2.6862,2.6871,2.691,2.6954,2.6987,2.7023,2.7058,2.7079,2.7103,2.7136,2.7185,2.7216,2.7278,2.7327,2.7375,2.7399,2.7402,2.7404,2.7414,2.741,2.74,2.7406,2.7305,2.7401,2.74,2.74,2.74,2.7399,2.6912,2.6945,2.6981,2.7026,2.7054,2.7087,2.7121,2.7144,2.7185,2.7235,2.7244,2.7297,2.7336,2.7402,2.7427,2.747,2.7462,2.7477,2.7481,2.7484,2.7486,2.7394,2.7479,2.7479,2.7479,2.7479,2.7479,0,2.6986,2.701,2.705,2.7099,2.7134,2.7133,2.7172,2.7202,2.7248,2.7283,2.7322,2.738,2.7427,2.746,2.7508,2.7536,2.7539,2.7548,2.7546,2.7552,2.749,2.7476,2.7546,2.7546,2.7546,2.7546,2.7546,2.7546,2.7028,2.7083,2.7097,2.7167,2.7191,2.7242,2.7264,2.7295,2.7324,2.7387,2.7426,2.7447,2.7481,2.7533,2.7577,2.7586,2.7603,2.7613,2.7621,2.7563,2.7556,2.7549,2.7536,2.7617,2.7617,2.7679,2.768,2.768]},{"header":{"parameterUnit":"m.s-1","parameterCategory":1,"la1":30.2991,"la2":30.254,"lo1":-89.0895,"lo2":-89.0444,"dy":0.0017,"dx":0.0017,"nx":28,"ny":28,"refTime":"2024-09-29T21:00:00:Z","depth":0,"parameterNumber":3,"parameterNumberName":"V-component_of_WINDS"},"data":[0,0,0,0,0,0,0,0,0,0,0,0,0,0,0,0,0,0,0,0,0,0,0,0,0,0,0,0,0,0,0,0,0,0,0,0,0,0,0,0,0,0,0,0,0,0,0,0,0,0,0,0,0,0,0,0,0,0,2.8392,2.8393,0,2.8454,2.8455,2.8456,2.8463,2.8463,2.8462,2.8461,2.8523,2.8525,2.8527,0,0,0,0,0,0,0,0,0,0,0,0,0,2.8273,2.8276,2.8392,2.8393,2.8394,2.8454,2.8455,2.8456,2.8463,2.8463,2.8462,2.8461,2.8522,2.8525,2.8527,0,0,0,0,0,0,0,0,0,0,0,0,0,2.8329,2.8276,2.8392,2.8405,2.8406,2.8454,2.8455,2.8456,2.8464,2.8463,2.8462,2.8461,2.8521,2.8525,2.8528,2.8566,0,0,2.8538,2.8539,0,0,0,0,0,0,0,0,2.8326,2.8334,2.8402,2.8404,2.8406,2.845,2.8436,2.8493,2.8464,2.8442,2.8461,2.846,2.8499,2.8504,2.8518,2.8569,2.8572,2.8538,2.854,2.8542,2.8543,0,0,0,0,0,0,0,2.8322,2.8331,2.8417,2.8403,2.8405,2.8405,2.8412,2.8447,2.8475,2.8444,2.8444,2.8452,2.85,2.8515,2.8519,2.8573,2.8538,2.8541,2.8543,2.8544,2.8652,2.8653,0,0,0,0,0,0,2.8317,2.8328,2.8415,2.8419,2.8363,2.8408,2.8416,2.8437,2.8474,2.8479,2.8452,2.8452,2.851,2.8516,2.8522,2.8566,2.8542,2.8545,2.8547,2.8652,2.8653,2.8654,0,0,0,0,0,0,2.8314,2.8324,2.8412,2.8373,2.8384,2.8411,2.8435,2.8439,2.8453,2.8481,2.8486,2.8463,2.8509,2.8517,2.8554,2.8568,2.8546,2.8549,2.8651,2.8652,2.8653,2.8656,0,0,0,0,0,0,2.8311,2.8323,2.834,2.8374,2.8387,2.8446,2.8436,2.844,2.8459,2.8459,2.8492,2.8496,2.8509,2.8549,2.8557,2.8572,2.8552,2.8649,2.8651,2.8653,2.8655,2.8657,2.8659,0,0,0,0,0,2.8306,2.8339,2.8341,2.8352,2.8408,2.8446,2.8454,2.8468,2.846,2.8476,2.8493,2.8495,2.8565,2.8553,2.8562,2.8578,2.8649,2.8651,2.8653,2.8654,2.8657,2.8659,0,0,0,0,0,0,2.8308,2.8344,2.8347,2.8392,2.8416,2.8448,2.8468,2.8472,2.8498,2.8497,2.8513,2.852,2.8555,2.8571,2.8556,2.8614,2.8606,2.861,2.8603,2.8607,2.8609,2.8604,2.8554,0,0,0,0,0,2.8313,2.8342,2.8372,2.8409,2.8421,2.8442,2.8459,2.8468,2.8493,2.8503,2.8524,2.8547,2.8573,2.8591,2.8618,2.8657,2.8662,2.8672,2.8674,2.8676,2.8679,2.8696,2.87,2.866,2.866,2.866,0,0,2.8325,2.8348,2.8366,2.8409,2.8429,2.8456,2.8451,2.8482,2.8501,2.8508,2.8543,2.8558,2.8585,2.8622,2.8639,2.8636,2.8691,2.8678,2.868,2.8682,2.8699,2.8702,2.8706,2.8662,2.8661,2.8661,0,0,2.836,2.8382,2.8413,2.8431,2.8461,2.8474,2.8481,2.8511,2.8521,2.8557,2.8561,2.8584,2.8631,2.8648,2.8663,2.8698,2.87,2.8706,2.8719,2.8735,2.8738,2.8741,2.8751,2.8754,2.8709,2.871,2.871,0,2.837,2.8414,2.8428,2.8457,2.8474,2.848,2.8509,2.8527,2.8563,2.8574,2.8569,2.8624,2.8643,2.8682,2.869,2.8703,2.8709,2.8703,2.8737,2.874,2.8743,2.8752,2.8756,2.871,2.871,2.871,2.871,0,2.8423,2.8452,2.8473,2.8506,2.8526,2.8555,2.8571,2.8589,2.8594,2.8607,2.864,2.8662,2.8691,2.8701,2.8708,2.874,2.8736,2.8734,2.8725,2.8746,2.8755,2.8759,2.871,2.871,2.871,2.871,0,0,2.8463,2.8501,2.8508,2.8521,2.8551,2.8573,2.86,2.8628,2.8641,2.8665,2.8686,2.8723,2.872,2.8736,2.8744,2.8759,2.8781,2.8755,2.8755,2.8757,2.8813,2.8813,2.8818,2.8782,2.8783,2.8784,2.881,0,2.8499,2.8549,2.856,2.8602,2.8626,2.863,2.8653,2.8673,2.8684,2.8705,2.8717,2.8742,2.8738,2.8747,2.8762,2.8775,2.8792,2.8774,2.88,2.88,2.8792,2.8823,2.8824,2.8849,2.8814,2.8815,2.8815,0,2.8549,2.8572,2.8616,2.8638,2.8649,2.867,2.8693,2.8714,2.8735,2.8742,2.8758,2.8763,2.8788,2.8778,2.8811,2.8798,2.8809,2.8816,2.8818,2.882,2.8809,2.8824,2.8857,2.886,2.8821,2.8821,2.882,0,2.8569,2.8611,2.8642,2.8653,2.8681,2.8695,2.8707,2.8727,2.8741,2.8761,2.877,2.8793,2.8805,2.8822,2.8832,2.8824,2.8862,2.8854,2.8867,2.8866,2.8875,2.8874,2.8908,2.8884,2.8884,2.8884,2.8884,0,2.8608,2.8634,2.8651,2.8669,2.8697,2.8708,2.8734,2.8746,2.8763,2.8782,2.8787,2.8804,2.8817,2.8835,2.8843,2.8867,2.8873,2.8877,2.8879,2.8876,2.8875,2.8883,2.8881,2.8885,2.8885,2.8884,2.8884,0,2.8636,2.8649,2.8681,2.8704,2.871,2.8729,2.8747,2.8764,2.8774,2.8797,2.8804,2.8819,2.884,2.8852,2.8879,2.8884,2.891,2.8911,2.8903,2.8903,2.8914,2.8912,2.8954,2.8959,2.8933,2.8933,2.8933,0,2.8659,2.8678,2.8702,2.8715,2.8727,2.8748,2.8762,2.8772,2.8786,2.8808,2.8821,2.8843,2.886,2.8894,2.8906,2.8926,2.8927,2.894,2.893,2.8925,2.8924,2.8922,2.8923,2.8941,2.8942,2.8942,2.8942,0,2.8697,2.8701,2.8721,2.8742,2.8758,2.8776,2.8793,2.8803,2.8815,2.883,2.8852,2.8865,2.8891,2.8911,2.8931,2.8942,2.8943,2.8945,2.8948,2.8945,2.8939,2.894,2.8906,2.8944,2.8944,2.8943,2.8943,2.8943,2.8721,2.8737,2.8755,2.8776,2.8789,2.8804,2.8819,2.883,2.8849,2.8871,2.8875,2.8897,2.8913,2.8939,2.895,2.8965,2.8963,2.8969,2.897,2.8971,2.897,2.8937,2.8969,2.8969,2.8969,2.8969,2.8969,0,2.8757,2.8768,2.8787,2.8809,2.8825,2.8825,2.8842,2.8855,2.8874,2.8889,2.8905,2.8928,2.8946,2.8959,2.8977,2.8987,2.8988,2.8992,2.899,2.8992,2.8973,2.8967,2.899,2.899,2.899,2.899,2.899,2.899,2.8777,2.8803,2.8808,2.8839,2.885,2.8871,2.888,2.8893,2.8904,2.8929,2.8945,2.8953,2.8966,2.8984,2.9,2.9003,2.9009,2.9012,2.9015,2.8996,2.8994,2.8992,2.8986,2.9013,2.9013,2.9033,2.9033,2.9033]}]]